CAPE
0 0 0 0 0 0 0 0 0 0 0 0 0 0 0 0 8 0 0 0 114 588 683 772 679 555 453 356 267 199 79 77 106 147 141 164 257 383 407 419 392 229 66 5 3 2 1 1 2
0 0 0 0 0 0 0 0 0 0 0 0 0 0 0 0 0 0 0 54 347 536 655 578 417 295 171 91 81 49 16 2 13 14 26 31 28 33 17 7 2 3 3 1 1 1 0 0 0
0 0 0 0 0 0 0 0 0 0 0 0 0 0 0 0 0 0 0 216 422 411 358 247 162 114 59 36 47 9 2 5 3 2 5 2 2 2 1 1 1 0 0 0 0 0 0 0 0
0 0 0 0 0 0 0 0 0 0 0 0 0 0 0 0 0 0 0 186 259 247 182 126 129 94 8 1 1 2 2 2 1 0 0 0 0 0 0 0 0 0 0 0 0 0 0 0 0
0 0 0 0 0 0 0 0 0 0 0 0 0 0 0 0 0 0 0 30 77 100 108 73 64 48 3 4 1 2 1 3 0 0 0 0 0 0 0 0 0 0 0 0 0 0 0 0 0
0 0 0 0 0 0 0 0 0 0 0 0 0 0 0 0 0 0 0 0 2 3 4 1 1 3 1 3 1 2 0 0 0 0 0 0 0 0 0 0 0 0 0 0 0 0 0 0 0
0 0 0 0 0 0 0 0 0 0 0 0 0 0 0 0 0 0 0 0 0 0 0 0 0 0 0 2 1 0 0 0 0 0 0 0 0 0 0 0 0 0 0 0 0 0 0 0 0
0 0 0 0 0 0 0 0 0 0 0 0 0 0 0 0 0 0 0 0 0 0 0 0 0 0 0 1 1 0 0 0 0 0 0 0 0 0 0 0 0 0 0 0 0 0 0 0 0
0 0 0 0 0 0 0 0 0 0 0 0 0 0 0 0 0 0 0 0 0 0 0 0 0 0 0 0 0 0 0 0 0 0 0 0 0 0 0 0 0 0 0 0 0 0 0 0 0
0 0 0 0 0 0 0 0 0 0 0 0 0 0 0 0 0 0 0 0 0 0 0 0 0 0 0 0 0 0 0 0 0 0 0 0 0 0 0 0 0 0 0 0 0 0 0 0 0
0 0 0 0 0 0 0 0 0 0 0 0 0 0 0 0 0 0 0 0 0 0 0 0 0 0 0 0 0 0 0 0 0 0 0 0 0 0 0 0 0 0 0 0 0 0 0 0 0
0 0 0 0 0 0 0 0 0 0 0 0 0 0 0 0 0 0 0 0 0 0 0 0 0 0 0 0 0 0 0 0 0 0 0 0 0 0 0 0 0 0 0 0 0 0 0 0 0
0 0 0 0 0 0 0 0 0 0 0 0 0 0 0 0 0 0 0 0 0 0 0 0 0 0 0 0 0 0 0 0 0 0 0 0 0 0 0 0 0 0 0 0 0 0 0 0 0
0 0 0 0 0 0 0 0 0 0 0 0 0 0 0 0 0 0 0 0 0 0 0 0 0 0 0 0 0 0 0 0 0 0 0 0 0 0 0 0 0 0 0 0 0 0 0 0 0
0 0 0 0 0 0 0 0 0 0 0 0 0 0 0 0 0 0 0 0 0 0 0 0 0 0 0 0 0 0 0 0 0 0 0 0 0 0 0 0 0 0 0 0 0 0 0 0 0
0 0 0 0 0 0 0 0 0 0 0 0 0 0 0 0 0 0 0 0 0 0 0 0 0 0 0 0 0 0 0 0 0 0 0 0 0 0 0 0 0 0 0 0 0 0 0 0 0
0 0 0 0 0 0 0 0 0 0 0 0 0 0 0 0 0 0 0 0 0 0 0 0 0 0 0 0 0 0 0 0 0 0 0 0 0 0 0 0 0 0 0 0 0 0 0 0 0
0 0 0 0 0 0 0 0 0 0 0 0 0 0 0 0 0 0 0 0 0 0 0 0 0 0 0 0 0 0 0 0 0 0 0 0 0 0 0 0 0 0 0 0 0 0 0 0 0
0 0 0 0 0 0 0 0 0 0 0 0 0 0 0 0 0 0 0 0 0 0 0 0 0 0 0 0 0 0 0 0 0 0 0 0 0 0 0 0 0 0 0 0 0 0 0 0 0
14 6 0 0 0 0 0 0 0 0 0 0 0 0 0 0 0 0 0 0 0 0 0 0 0 0 0 0 0 0 0 0 0 0 0 0 0 0 0 0 0 0 0 0 0 0 0 0 0
0 0 0 1 2 0 0 0 0 0 0 0 0 0 0 0 0 0 0 0 0 0 0 0 0 0 0 0 0 0 0 0 0 0 0 0 0 0 0 0 0 0 0 0 0 0 0 0 0
0 0 0 5 5 2 1 0 0 0 0 0 0 0 0 0 0 0 0 0 0 0 0 0 0 0 0 0 0 0 0 0 0 0 0 0 0 0 0 0 0 0 0 0 0 0 0 0 0
0 0 0 5 6 5 12 9 0 0 0 0 0 0 0 0 0 0 0 0 0 0 0 0 0 0 0 0 0 0 0 0 0 0 0 0 0 0 0 0 0 0 0 0 0 0 0 0 0
0 0 0 0 0 2 0 0 0 0 0 0 0 0 0 0 0 0 0 0 0 0 0 0 0 0 0 0 0 0 0 0 0 0 0 0 0 0 0 0 0 0 0 0 0 0 0 0 0
0 2 5 0 0 0 0 0 0 0 0 0 0 0 0 0 0 0 0 0 0 0 0 0 0 0 0 0 0 0 0 0 0 0 0 0 0 0 0 0 0 0 0 0 0 0 0 0 0
0 0 5 14 2 0 0 1 0 0 0 0 0 0 0 0 0 0 0 0 0 0 0 0 0 0 0 0 0 0 0 0 0 0 0 0 0 0 0 0 0 0 0 0 0 0 0 0 0
0 0 0 0 0 0 0 0 0 0 0 0 0 0 0 0 0 0 0 0 0 0 0 0 0 0 0 0 0 0 0 0 0 0 0 0 0 0 0 0 0 0 0 0 0 0 0 0 0
0 0 0 0 0 0 0 0 0 0 0 0 0 0 0 0 0 0 0 0 0 0 0 0 0 0 0 0 0 0 0 0 0 0 0 0 0 0 0 0 0 0 0 0 0 0 0 0 0
2 0 0 0 0 0 0 0 0 0 0 0 0 0 0 0 0 0 0 0 0 0 0 0 0 0 0 0 0 0 0 0 0 0 0 0 0 0 0 0 0 0 0 0 0 0 0 0 0
0 0 0 1 0 0 0 0 0 0 0 0 0 0 0 0 0 0 0 0 0 0 0 0 0 0 0 0 0 0 0 0 0 0 0 0 0 0 0 0 0 0 0 0 0 0 0 0 0
CIN
-0 -0 -0 -0 -0 -0 -0 -0 -0 -0 -0 -0 -0 -0 -0 -0 -31 -11 -0 -0 -220 -66 -26 -14 -8 -11 -24 -38 -42 -62 -102 -106 -93 -70 -63 -44 -24 -12 -8 -9 -7 -12 -26 -1 -0 -0 -0 -0 -0
-0 -0 -0 -0 -0 -0 -0 -0 -0 -0 -0 -0 -0 -0 -0 -0 -0 -0 -0 -271 -147 -72 -39 -37 -39 -42 -59 -86 -84 -110 -153 -74 -145 -156 -126 -96 -88 -64 -35 -46 -4 -2 -0 -0 -0 -0 -0 -0 -0
-0 -0 -0 -0 -0 -0 -0 -0 -0 -0 -0 -0 -0 -0 -0 -0 -0 -0 -0 -229 -147 -104 -85 -80 -87 -92 -122 -136 -110 -167 -20 -0 -0 -0 -0 -0 -0 -0 -0 -0 -1 -0 -0 -0 -0 -0 -0 -0 -0
-0 -0 -0 -0 -0 -0 -0 -0 -0 -0 -0 -0 -0 -0 -0 -0 -0 -0 -0 -221 -206 -179 -149 -122 -95 -100 -49 -0 -1 -0 -0 -0 -0 -0 -0 -0 -0 -0 -0 -0 -0 -0 -0 -0 -0 -0 -0 -0 -0
-0 -0 -0 -0 -0 -0 -0 -0 -0 -0 -0 -0 -0 -0 -0 -0 -0 -0 -0 -253 -252 -236 -187 -157 -133 -129 -24 -1 -0 -0 -0 -0 -0 -0 -0 -0 -0 -0 -0 -0 -0 -0 -0 -0 -0 -0 -0 -0 -0
-0 -0 -0 -0 -0 -0 -0 -0 -0 -0 -0 -0 -0 -0 -0 -0 -0 -0 -0 -0 -40 -36 -96 -34 -27 -22 -17 -2 -0 -0 -0 -0 -0 -0 -0 -0 -0 -0 -0 -0 -0 -0 -0 -0 -0 -0 -0 -0 -0
-0 -0 -0 -0 -0 -0 -0 -0 -0 -0 -0 -0 -0 -0 -0 -0 -0 -0 -0 -0 -5 -3 -19 -5 -13 -0 -0 -3 -0 -0 -0 -0 -0 -0 -0 -0 -0 -0 -0 -0 -0 -0 -0 -0 -0 -0 -0 -0 -0
-0 -0 -0 -0 -0 -0 -0 -0 -0 -0 -0 -0 -0 -0 -0 -0 -0 -0 -0 -0 -0 -0 -0 -0 -0 -0 -0 -8 -0 -0 -0 -0 -0 -0 -0 -0 -0 -0 -0 -0 -0 -0 -0 -0 -0 -0 -0 -0 -0
-0 -0 -0 -0 -0 -0 -0 -0 -0 -0 -0 -0 -0 -0 -0 -0 -0 -0 -0 -0 -0 -0 -0 -0 -0 -0 -0 -0 -0 -0 -0 -0 -0 -0 -0 -0 -0 -0 -0 -0 -0 -0 -0 -0 -0 -0 -0 -0 -0
-0 -0 -0 -0 -0 -0 -0 -0 -0 -0 -0 -0 -0 -0 -0 -0 -0 -0 -0 -0 -0 -0 -0 -0 -0 -0 -0 -0 -0 -0 -0 -0 -0 -0 -0 -0 -0 -0 -0 -0 -0 -0 -0 -0 -0 -0 -0 -0 -0
-0 -0 -0 -0 -0 -0 -0 -0 -0 -0 -0 -0 -0 -0 -0 -0 -0 -0 -0 -0 -0 -0 -0 -0 -0 -0 -0 -0 -0 -0 -0 -0 -0 -0 -0 -0 -0 -0 -0 -0 -0 -0 -0 -0 -0 -0 -0 -0 -0
-0 -0 -0 -0 -0 -0 -0 -0 -0 -0 -0 -0 -0 -0 -0 -0 -0 -0 -0 -0 -0 -0 -0 -0 -0 -0 -0 -0 -0 -0 -0 -0 -0 -0 -0 -0 -0 -0 -0 -0 -0 -0 -0 -0 -0 -0 -0 -0 -0
-0 -0 -0 -0 -0 -0 -0 -0 -0 -0 -0 -0 -0 -0 -0 -0 -0 -0 -0 -0 -0 -0 -0 -0 -0 -0 -0 -0 -0 -0 -0 -0 -0 -0 -0 -0 -0 -0 -0 -0 -0 -0 -0 -0 -0 -0 -0 -0 -0
-0 -0 -0 -0 -0 -0 -0 -0 -0 -0 -0 -0 -0 -0 -0 -0 -0 -0 -0 -0 -0 -0 -0 -0 -0 -0 -0 -0 -0 -0 -0 -0 -0 -0 -0 -0 -0 -0 -0 -0 -0 -0 -0 -0 -0 -0 -0 -0 -0
-0 -0 -0 -0 -0 -0 -0 -0 -0 -0 -0 -0 -0 -0 -0 -0 -0 -0 -0 -0 -0 -0 -0 -0 -0 -0 -0 -0 -0 -0 -0 -0 -0 -0 -0 -0 -0 -0 -0 -0 -0 -0 -0 -0 -0 -0 -0 -0 -0
-0 -0 -0 -0 -0 -0 -0 -0 -0 -0 -0 -0 -0 -0 -0 -0 -0 -0 -0 -0 -0 -0 -0 -0 -0 -0 -0 -0 -0 -0 -0 -0 -0 -0 -0 -0 -0 -0 -0 -0 -0 -0 -0 -0 -0 -0 -0 -0 -0
-0 -0 -0 -0 -0 -0 -0 -0 -0 -0 -0 -0 -0 -0 -0 -0 -0 -0 -0 -0 -0 -0 -0 -0 -0 -0 -0 -0 -0 -0 -0 -0 -0 -0 -0 -0 -0 -0 -0 -0 -0 -0 -0 -0 -0 -0 -0 -0 -0
-0 -0 -0 -0 -0 -0 -0 -0 -0 -0 -0 -0 -0 -0 -0 -0 -0 -0 -0 -0 -0 -0 -0 -0 -0 -0 -0 -0 -0 -0 -0 -0 -0 -0 -0 -0 -0 -0 -0 -0 -0 -0 -0 -0 -0 -0 -0 -0 -0
-0 -0 -0 -0 -0 -0 -0 -0 -0 -0 -0 -0 -0 -0 -0 -0 -0 -0 -0 -0 -0 -0 -0 -0 -0 -0 -0 -0 -0 -0 -0 -0 -0 -0 -0 -0 -0 -0 -0 -0 -0 -0 -0 -0 -0 -0 -0 -0 -0
-0 -1 -0 -0 -0 -0 -0 -0 -0 -0 -0 -0 -0 -0 -0 -0 -0 -0 -0 -0 -0 -0 -0 -0 -0 -0 -0 -0 -0 -0 -0 -0 -0 -0 -0 -0 -0 -0 -0 -0 -0 -0 -0 -0 -0 -0 -0 -0 -0
-3 -0 -0 -1 -3 -0 -2 -0 -0 -0 -0 -0 -0 -0 -0 -0 -0 -0 -0 -0 -0 -0 -0 -0 -0 -0 -0 -0 -0 -0 -0 -0 -0 -0 -0 -0 -0 -0 -0 -0 -0 -0 -0 -0 -0 -0 -0 -0 -0
-1 -1 -1 -0 -8 -2 -4 -0 -0 -0 -0 -0 -0 -0 -0 -0 -0 -0 -0 -0 -0 -0 -0 -0 -0 -0 -0 -0 -0 -0 -0 -0 -0 -0 -0 -0 -0 -0 -0 -0 -0 -0 -0 -0 -0 -0 -0 -0 -0
-0 -0 -0 -1 -4 -5 -6 -2 -0 -0 -0 -0 -0 -0 -0 -0 -0 -0 -0 -0 -0 -0 -0 -0 -0 -0 -0 -0 -0 -0 -0 -0 -0 -0 -0 -0 -0 -0 -0 -0 -0 -0 -0 -0 -0 -0 -0 -0 -0
-0 -0 -0 -0 -0 -3 -0 -0 -0 -0 -0 -0 -0 -0 -0 -0 -0 -0 -0 -0 -0 -0 -0 -0 -0 -0 -0 -0 -0 -0 -0 -0 -0 -0 -0 -0 -0 -0 -0 -0 -0 -0 -0 -0 -0 -0 -0 -0 -0
-0 -5 -11 -0 -0 -3 -0 -0 -0 -0 -0 -0 -0 -0 -0 -0 -0 -0 -0 -0 -0 -0 -0 -0 -0 -0 -0 -0 -0 -0 -0 -0 -0 -0 -0 -0 -0 -0 -0 -0 -0 -0 -0 -0 -0 -0 -0 -0 -0
-0 -0 -6 -6 -24 -0 -0 -3 -0 -0 -0 -0 -0 -0 -0 -0 -0 -0 -0 -0 -0 -0 -0 -0 -0 -0 -0 -0 -0 -0 -0 -0 -0 -0 -0 -0 -0 -0 -0 -0 -0 -0 -0 -0 -0 -0 -0 -0 -0
-0 -0 -0 -0 -0 -0 -0 -0 -0 -0 -0 -0 -0 -0 -0 -0 -0 -0 -0 -0 -0 -0 -0 -0 -0 -0 -0 -0 -0 -0 -0 -0 -0 -0 -0 -0 -0 -0 -0 -0 -0 -0 -0 -0 -0 -0 -0 -0 -0
-2 -0 -0 -0 -14 -0 -0 -0 -0 -0 -0 -0 -0 -0 -0 -0 -0 -0 -0 -0 -0 -0 -0 -0 -0 -0 -0 -0 -0 -0 -0 -0 -0 -0 -0 -0 -0 -0 -0 -0 -0 -0 -0 -0 -0 -0 -0 -0 -0
-0 -0 -1 -0 -0 -0 -0 -0 -0 -0 -0 -0 -0 -0 -0 -0 -0 -0 -0 -0 -0 -0 -0 -0 -0 -0 -0 -0 -0 -0 -0 -0 -0 -0 -0 -0 -0 -0 -0 -0 -0 -0 -0 -0 -0 -0 -0 -0 -0
-0 -0 -0 -2 -0 -0 -0 -0 -0 -0 -0 -0 -0 -0 -0 -0 -0 -0 -0 -0 -0 -0 -0 -0 -0 -0 -0 -0 -0 -0 -0 -0 -0 -0 -0 -0 -0 -0 -0 -0 -0 -0 -0 -0 -0 -0 -0 -0 -0
Wind_Speed
18 16 13 13 16 20 24 23 23 26 17 20 22 22 15 17 14 19 10 8 3 3 4 7 5 2 1 3 2 2 3 4 3 5 6 7 8 9 10 11 11 11 12 12 13 14 15 16 16
16 15 13 15 22 23 27 24 27 27 23 19 19 18 17 23 17 12 1 2 6 4 3 4 5 3 2 2 1 4 2 2 3 5 6 7 7 8 9 10 10 11 11 12 13 14 15 16 17
14 14 16 20 25 24 27 23 29 31 33 23 26 21 19 20 17 3 11 6 7 4 5 4 3 2 1 2 1 1 2 2 3 4 6 6 7 7 8 9 10 10 11 12 13 15 16 16 17
14 16 20 29 30 27 26 21 19 22 21 21 26 25 22 21 15 14 3 5 6 6 6 5 3 2 1 2 2 2 1 1 3 4 4 5 6 7 8 8 9 10 11 13 14 15 16 17 18
15 19 29 34 38 29 28 32 25 26 25 23 24 29 25 23 18 7 5 6 6 5 5 5 5 4 3 2 2 1 1 1 2 3 4 5 6 7 8 9 10 11 12 14 15 16 17 18 19
21 22 33 38 37 33 32 34 32 36 35 31 28 26 26 22 13 7 7 7 6 6 5 5 5 4 2 4 3 1 1 1 2 2 3 5 6 7 8 9 11 12 13 15 16 17 18 18 19
26 29 39 38 40 40 36 27 33 38 38 37 27 32 28 22 15 8 9 9 8 7 7 6 6 5 4 4 3 3 2 1 1 2 3 5 6 7 8 10 11 12 13 15 16 17 18 19 20
27 30 39 38 41 46 32 27 29 32 40 31 27 34 33 22 13 11 11 11 11 11 10 9 8 8 6 7 5 4 3 3 3 3 4 4 6 8 9 10 11 12 13 15 16 17 18 19 20
26 39 44 41 37 32 24 28 27 26 32 29 27 29 27 12 11 13 16 17 16 16 14 13 12 12 9 8 7 7 6 5 4 4 4 6 7 8 9 10 12 13 14 16 17 18 20 21 21
34 44 46 36 36 36 36 34 30 30 30 32 30 29 24 14 14 15 17 18 20 19 18 16 15 14 11 11 9 9 8 7 6 5 5 7 8 9 10 12 13 15 15 17 18 20 21 21 22
39 52 43 43 40 38 43 42 35 35 38 35 34 32 25 21 20 21 22 20 19 21 20 19 16 14 13 12 11 10 10 8 7 6 7 8 10 11 13 14 15 16 17 18 19 20 21 21 22
48 47 48 46 42 38 43 39 40 36 36 32 32 31 26 24 23 24 24 23 22 21 21 19 16 16 15 14 13 12 11 11 10 9 8 9 10 12 13 15 15 16 17 17 18 20 21 22 23
51 48 45 47 48 46 46 49 46 45 40 36 31 26 27 27 26 25 27 27 25 24 22 20 17 16 16 15 16 15 15 13 12 12 10 10 10 12 13 14 15 16 16 18 19 20 21 22 23
41 46 54 51 49 44 50 55 50 48 42 41 37 34 31 30 29 28 26 26 27 25 25 23 21 19 18 18 18 18 17 16 15 13 12 11 11 11 12 13 14 15 16 17 18 20 21 23 24
51 59 54 50 49 53 45 62 60 47 45 44 41 39 35 34 33 31 27 28 26 27 26 25 24 22 21 21 20 19 19 17 16 15 14 13 12 12 12 12 13 14 16 17 18 20 21 23 24
45 48 62 56 49 43 40 76 51 49 50 53 44 43 40 38 38 36 34 32 30 29 27 25 24 24 23 23 23 22 21 19 18 16 15 14 14 13 13 13 14 14 15 17 18 20 21 23 25
51 64 61 57 44 44 46 68 52 44 44 51 48 46 47 45 41 41 37 37 33 30 29 28 26 25 25 25 24 23 22 20 19 17 16 15 14 14 14 14 14 14 16 17 18 19 22 25 27
63 60 57 56 46 46 51 69 52 46 45 49 49 46 47 49 49 44 41 38 35 34 32 31 30 27 25 25 25 23 22 21 20 18 17 17 16 15 15 16 16 16 17 17 18 20 21 24 27
60 60 63 57 46 47 55 67 54 48 48 51 50 48 49 49 48 44 41 38 37 35 34 32 31 29 27 27 27 27 26 24 23 20 17 16 17 17 17 17 16 18 19 19 19 20 21 24 25
59 64 68 59 53 53 59 68 53 50 51 53 53 54 51 48 46 43 40 37 37 37 35 33 32 31 29 29 28 29 27 27 24 21 19 18 17 17 18 17 18 18 19 20 20 20 21 23 23
62 64 66 65 49 52 55 73 64 55 54 54 52 53 52 50 47 42 36 37 37 37 36 35 32 31 30 29 27 27 25 26 25 24 23 21 20 18 17 17 18 18 19 20 21 21 20 23 22
67 57 57 61 58 71 47 80 65 60 59 54 58 55 54 50 47 49 45 40 36 35 33 34 33 31 29 28 28 28 29 29 27 25 23 21 20 19 19 19 18 18 19 20 20 20 21 22 23
56 47 52 54 57 60 56 64 67 57 59 56 58 57 54 54 50 49 47 43 37 33 33 31 32 31 30 29 29 29 29 27 25 24 23 22 21 21 20 19 19 20 20 20 20 20 21 22 22
46 43 45 47 50 70 65 63 79 59 59 58 56 58 52 51 50 49 45 43 40 35 35 33 32 32 31 30 30 29 29 26 25 24 24 23 23 22 20 20 20 20 20 21 20 20 20 21 22
39 42 49 53 57 67 55 59 69 44 54 61 61 55 51 47 46 45 45 46 44 40 38 36 34 34 32 31 31 30 29 27 27 25 25 24 24 23 21 20 20 20 20 20 20 20 20 19 21
36 41 44 50 47 55 45 56 58 54 55 41 41 44 47 45 42 42 43 41 39 40 40 39 39 37 34 33 32 31 30 30 28 26 25 25 24 23 21 20 20 20 20 20 20 21 20 19 20
36 43 33 42 40 44 42 42 43 43 43 42 50 50 52 47 44 47 46 42 38 32 33 35 38 39 36 33 31 31 30 29 29 27 25 24 23 23 21 21 21 20 20 20 21 21 21 20 20
31 27 32 38 42 50 42 42 41 40 43 43 44 43 44 44 45 44 43 40 36 34 28 28 30 35 33 32 31 30 29 28 27 26 25 24 23 22 22 22 22 21 21 21 21 21 21 21 21
29 33 29 26 28 27 33 39 30 37 36 39 37 37 38 42 42 39 35 33 32 28 27 27 29 27 28 27 26 27 27 27 26 26 25 24 23 22 23 22 22 22 21 21 21 22 23 23 23
29 32 32 33 32 32 34 38 22 28 31 31 34 36 35 33 31 31 30 28 28 28 25 24 25 24 24 22 21 22 22 23 25 25 25 24 24 24 23 22 23 23 23 23 24 25 26 26 26
Wind_Direction
301 304 307 300 291 290 281 283 283 276 290 279 274 268 275 270 269 273 296 271 146 148 138 126 126 170 194 257 299 15 303 297 348 3 16 24 29 31 31 31 30 23 16 9 7 4 357 353 352
301 300 300 294 281 278 279 283 276 269 270 287 273 275 274 262 273 289 315 249 129 152 180 159 132 128 128 258 347 69 343 311 14 29 35 36 34 30 29 19 7 7 12 9 3 359 357 352 347
298 296 285 280 275 271 278 283 272 266 260 268 260 274 271 269 270 243 276 135 130 156 182 180 172 215 214 269 273 57 50 19 19 28 35 35 32 24 20 13 8 6 2 356 352 350 348 347 344
292 290 287 271 269 274 272 283 281 284 275 265 262 263 272 270 272 267 225 156 148 147 156 166 182 189 193 228 253 275 320 345 18 30 28 23 18 15 14 12 10 6 359 353 348 346 343 341 338
289 285 270 269 268 274 272 268 271 276 273 270 265 258 267 268 270 257 206 215 177 179 176 168 169 161 155 225 235 257 295 339 349 351 7 2 359 357 359 357 354 351 347 343 341 339 338 339 340
275 279 271 265 268 273 270 268 269 264 265 266 266 266 269 274 274 246 230 228 224 217 202 193 190 181 192 210 211 208 166 29 359 356 353 353 354 351 346 345 346 345 342 340 339 339 339 340 339
268 269 267 269 268 269 269 275 267 262 262 261 270 263 268 270 266 244 243 243 239 232 228 218 215 216 215 219 198 191 173 161 329 337 340 343 343 341 340 341 344 343 344 343 342 342 342 340 339
269 270 267 266 266 265 273 273 274 267 262 271 264 261 261 269 255 244 244 243 244 246 243 238 238 239 242 241 231 232 234 248 269 290 307 326 335 332 330 332 336 340 341 340 339 338 339 337 337
269 264 261 262 265 269 281 272 273 277 267 266 262 261 270 263 242 242 247 249 247 247 247 245 247 251 248 241 238 242 248 253 266 283 296 309 318 320 326 328 330 329 329 328 330 331 331 332 333
259 261 261 264 265 270 269 268 275 273 266 262 262 263 267 251 237 237 239 243 245 243 243 245 249 252 244 244 242 251 256 259 265 276 291 301 307 310 313 315 317 319 322 324 325 326 328 330 331
261 259 265 264 266 269 266 266 272 269 264 263 262 260 259 253 248 246 248 246 241 246 247 249 247 245 240 239 241 247 256 260 265 268 283 294 300 302 304 308 310 313 316 319 322 326 329 330 331
263 263 261 265 266 268 264 267 264 265 266 271 271 266 256 251 250 249 249 248 247 245 246 247 244 239 241 241 245 247 250 257 262 268 276 284 291 296 300 304 308 312 316 320 323 326 328 329 329
262 265 264 263 263 263 265 261 262 263 267 270 271 265 256 255 254 253 254 254 251 248 247 244 240 233 237 242 249 251 253 257 262 267 273 279 286 291 297 302 307 311 317 320 322 325 326 327 327
267 266 264 264 261 263 262 262 262 262 265 265 264 262 259 257 254 255 254 254 251 250 247 245 242 240 238 244 247 252 256 260 264 267 271 276 281 288 295 301 306 311 316 320 322 324 325 326 326
264 264 266 262 262 261 264 260 256 261 263 264 263 261 259 257 256 253 254 253 250 250 248 243 243 243 244 247 249 252 255 258 261 266 271 273 277 282 289 296 302 308 314 318 321 323 324 324 325
263 262 259 260 260 261 258 255 260 259 260 260 261 260 259 259 257 258 257 256 254 251 247 245 243 245 247 250 252 255 256 258 260 263 268 272 276 281 287 292 298 305 311 315 320 322 323 324 324
258 257 258 260 259 258 253 258 261 261 260 259 260 260 259 260 260 258 258 258 255 250 248 245 243 244 247 251 253 255 256 257 260 263 266 269 273 278 284 289 296 301 307 312 318 322 323 321 321
253 256 258 258 258 256 259 258 262 260 259 259 260 260 260 259 259 259 259 258 255 252 249 247 246 246 247 252 255 256 256 258 259 259 263 268 273 276 281 287 292 297 303 310 317 320 323 322 320
257 258 258 259 261 259 257 259 262 261 260 258 258 260 262 262 263 262 259 257 253 251 247 245 244 245 245 248 250 255 255 257 258 258 259 263 270 275 279 284 289 294 299 305 313 319 321 321 322
254 255 256 261 260 260 259 258 262 261 259 258 259 259 260 262 264 264 260 256 252 249 248 246 245 245 246 248 250 257 256 261 260 259 261 263 266 270 276 281 286 292 297 303 309 314 318 319 321
253 255 255 256 263 261 262 259 259 260 260 259 260 260 261 261 262 263 262 256 254 249 247 247 244 245 244 247 249 257 258 263 261 261 262 263 263 267 273 279 284 289 296 300 306 310 314 313 317
253 253 257 257 258 256 258 257 258 258 259 258 257 258 259 261 262 261 261 262 257 248 244 245 244 242 241 240 243 247 252 256 259 259 260 260 262 267 274 278 283 288 294 299 303 308 311 311 310
252 254 255 257 258 259 257 257 257 258 257 256 257 258 260 261 263 262 261 260 258 253 247 244 244 243 242 240 243 246 252 256 260 258 256 259 264 268 273 277 282 286 292 297 301 305 307 308 309
255 255 255 256 257 254 254 254 253 256 256 258 259 260 263 264 265 263 262 260 259 256 250 246 242 243 243 243 244 244 249 251 254 255 255 259 264 268 271 276 280 286 292 295 299 302 304 305 306
253 247 251 253 251 254 256 255 254 264 260 260 260 262 265 266 265 264 263 260 258 255 251 248 245 245 245 245 247 248 250 250 252 252 256 257 263 267 268 272 278 285 290 294 298 299 300 301 302
248 248 245 250 256 256 259 257 258 261 264 268 266 263 265 268 266 265 265 264 263 257 253 249 247 246 245 245 248 250 251 253 255 255 258 259 261 264 266 271 277 284 289 292 295 296 297 299 300
248 249 256 260 266 265 264 268 270 266 265 265 265 268 266 268 268 267 269 267 263 260 255 251 247 246 244 244 246 248 250 252 254 257 259 259 261 264 266 270 276 282 287 289 291 293 293 295 297
250 252 253 254 260 257 266 266 266 264 265 267 268 270 272 273 272 271 270 268 264 260 258 253 248 245 243 244 246 247 249 252 254 257 257 259 261 263 267 271 275 280 284 288 289 291 291 291 294
241 249 251 266 264 270 269 268 271 273 275 273 274 279 282 278 276 273 275 270 265 262 257 252 249 242 241 242 245 245 250 254 255 255 257 258 262 264 268 270 273 278 282 286 288 288 289 289 291
247 254 250 255 261 267 272 272 293 287 287 286 284 285 285 286 285 277 275 272 266 261 257 252 247 241 241 241 241 245 249 253 255 257 257 259 261 265 268 271 274 278 281 284 285 286 286 286 288